Stations météo

réclame
Mon MeteoGroup
Ulm-Maehringen, Allemagne (10840): Température de l'air & dewpoint: 17.09.2018 04:00:00 - 23.09.2018 04:00:00 (CEST)Ulm-Maehringen, Allemagne (10840): Température de l'air 5cm & Température de l'air -5cm: 17.09.2018 04:00:00 - 23.09.2018 04:00:00 (CEST)Ulm-Maehringen, Allemagne (10840): Température de l'air -20cm & Température de l'air -100cm: 17.09.2018 04:00:00 - 23.09.2018 04:00:00 (CEST)Ulm-Maehringen, Allemagne (10840): Vitesse du vent & gusts: 17.09.2018 04:00:00 - 23.09.2018 04:00:00 (CEST)Ulm-Maehringen, Allemagne (10840): Direction du vent: 17.09.2018 04:00:00 - 23.09.2018 04:00:00 (CEST)Ulm-Maehringen, Allemagne (10840): reduced air pressure: 17.09.2018 04:00:00 - 23.09.2018 04:00:00 (CEST)Ulm-Maehringen, Allemagne (10840): visibility: 17.09.2018 04:00:00 - 23.09.2018 04:00:00 (CEST)Ulm-Maehringen, Allemagne (10840): Ensoleillement: 17.09.2018 04:00:00 - 23.09.2018 04:00:00 (CEST)Ulm-Maehringen, Allemagne (10840): Quantités de précipitations: 17.09.2018 04:00:00 - 23.09.2018 04:00:00 (CEST)
Date & Time tt [°C] td [°C] tt 5cm [°C] tt -5cm [°C] tt -20cm [°C] tt -100cm [°C] ff [km/h] ff [knt] fx [km/h] fx [knt] dd ppp [hPa] vv [km] sd [min] rr [mm]
23.09.2018 04:00:00 10,4 10,0 10,3 12,3 16,1 17,1 11 6 18 10 S 1019,7 26 0 0,1
23.09.2018 03:00:00 10,0 9,5 9,9 12,4 16,3 17,1 4 2 13 7 SSW 1020,9 25 0 0,4
23.09.2018 02:00:00 10,7 8,5 10,2 12,5 16,5 17,1 9 5 26 14 WSW 1021,5 13 0 0,0
23.09.2018 01:00:00 11,2 7,7 10,6 12,8 16,7 17,1 15 8 28 15 SW 1021,4 43 0 0,0
23.09.2018 00:00:00 10,4 8,5 9,8 13,6 16,9 17,1 9 5 21 12 SW 1021,7 34 0 0,3
22.09.2018 23:00:00 10,4 8,7 10,2 14,2 17,1 17,1 4 2 6 4 SW 1021,5 61 0 0,2
22.09.2018 22:00:00 11,3 7,2 10,1 14,9 17,2 17,1 6 3 9 5 SW 1021,5 8 0 0,3
22.09.2018 21:00:00 13,7 4,5 12,9 15,5 17,4 17,1 4 2 13 7 WSW 1020,9 70 0 0,0
22.09.2018 20:00:00 14,3 4,5 13,4 16,3 17,4 17,1 7 4 12 7 W 1020,6 70 0 0,0
22.09.2018 19:00:00 15,4 4,3 15,1 17,6 17,3 17,1 5 3 19 10 NW 1019,9 70 0 0,0
22.09.2018 18:00:00 16,2 4,4 16,7 19,2 17,1 17,1 11 6 25 14 SW 1020,0 70 48 0,0
22.09.2018 17:00:00 16,3 3,6 18,7 21,3 16,7 17,1 14 8 42 23 SSW 1020,6 56 59 0,0
22.09.2018 16:00:00 16,0 3,9 19,4 22,5 16,3 17,1 15 8 30 16 S 1020,7 70 55 0,0
22.09.2018 15:00:00 15,6 4,9 20,5 22,8 15,8 17,1 13 7 28 15 SSW 1021,9 70 56 0,0
22.09.2018 14:00:00 14,7 4,7 19,5 19,6 15,6 17,1 11 6 25 14 WSW 1022,7 69 40 0,0
22.09.2018 13:00:00 13,3 4,7 15,4 17,1 15,3 17,1 16 8 24 13 SSW 1023,5 63 32 0,0
22.09.2018 12:00:00 12,9 4,4 14,9 16,5 15,2 17,1 9 5 23 12 SW 1024,4 68 43 0,0
22.09.2018 11:00:00 12,5 5,6 14,1 15,0 15,2 17,1 11 6 20 11 SSW 1024,4 67 54 0,0
22.09.2018 10:00:00 11,2 6,2 12,0 13,5 15,3 17,1 11 6 16 9 WSW 1025,1 63 47 0,0
22.09.2018 09:00:00 9,3 6,4 9,7 10,9 15,5 17,1 5 3 11 6 W 1025,1 62 11 0,0
22.09.2018 08:00:00 7,8 6,1 5,0 9,7 15,8 17,1 5 3 13 7 WSW 1025,3 56 0 0,0
22.09.2018 07:00:00 8,2 6,7 7,1 9,7 16,1 17,1 11 6 18 10 SSW 1024,7 35 0 0,0
22.09.2018 06:00:00 8,2 6,8 6,4 10,1 16,4 17,1 7 4 15 8 SSW 1024,7 52 0 0,0
22.09.2018 05:00:00 9,0 7,0 7,9 10,6 16,7 17,1 12 6 16 9 SSW 1024,2 54 0 0,0
22.09.2018 04:00:00 9,4 7,4 7,9 11,0 17,0 17,1 10 5 16 8 SW 1024,0 51 0 0,0
22.09.2018 03:00:00 10,1 7,5 8,7 11,9 17,3 17,1 8 5 15 8 SSW 1023,3 60 0 0,0
22.09.2018 02:00:00 10,6 7,5 10,2 12,3 17,6 17,1 7 4 13 7 SW 1022,8 65 0 0,0
22.09.2018 01:00:00 10,8 7,3 9,8 12,4 18,0 17,1 10 5 19 10 SW 1022,2 64 0 0,0
22.09.2018 00:00:00 10,9 7,2 9,7 12,8 18,3 17,1 10 6 18 10 WSW 1021,0 68 0 0,0
21.09.2018 23:00:00 11,4 7,0 10,2 13,4 18,7 17,1 11 6 22 12 W 1020,4 69 0 0,0
21.09.2018 22:00:00 11,8 7,2 11,2 14,4 19,0 17,1 11 6 33 18 W 1019,0 70 0 0,0
21.09.2018 21:00:00 11,9 8,5 10,9 15,5 19,3 17,1 16 8 37 20 WNW 1017,9 64 0 0,2
21.09.2018 20:00:00 13,1 11,4 12,4 16,8 19,6 17,1 25 13 55 30 NW 1015,8 19 0 0,1
21.09.2018 19:00:00 19,6 11,4 18,3 18,6 19,7 17,1 20 11 34 18 W 1011,9 65 0 0,0
21.09.2018 18:00:00 18,4 15,6 17,2 19,9 19,7 17,1 12 6 20 11 SW 1011,2 32 0 0,0
21.09.2018 17:00:00 18,1 15,3 16,7 21,2 19,5 17,1 16 9 48 26 WSW 1011,3 29 0 1,0
21.09.2018 16:00:00 24,2 12,6 24,1 24,4 19,2 17,1 24 13 44 24 SW 1009,2 47 2 0,0
21.09.2018 15:00:00 24,8 13,4 25,8 25,4 18,7 17,1 22 12 42 23 SW 1009,5 36 17 0,0
21.09.2018 14:00:00 25,3 13,4 27,9 26,5 18,2 17,1 22 12 38 20 SSW 1009,5 40 44 0,0
21.09.2018 13:00:00 23,9 13,6 25,7 24,8 17,8 17,1 18 10 31 17 SSW 1010,5 36 45 0,0
21.09.2018 12:00:00 21,2 13,9 22,4 21,5 17,5 17,0 16 9 31 17 SSW 1012,1 34 21 0,0
21.09.2018 11:00:00 21,6 14,2 24,3 22,6 17,2 17,0 21 12 33 18 SSW 1012,1 20 60 0,0
21.09.2018 10:00:00 18,9 13,9 21,1 18,9 17,2 17,0 15 8 22 12 SSW 1012,8 20 60 0,0
21.09.2018 09:00:00 16,4 12,5 17,0 15,3 17,4 17,0 11 6 23 13 SW 1013,5 25 60 0,0
21.09.2018 08:00:00 14,1 11,3 12,8 13,1 17,7 17,0 11 6 20 11 SSW 1014,2 29 29 0,0
21.09.2018 07:00:00 12,1 10,8 8,8 12,4 18,0 17,0 8 5 15 8 SW 1014,6 25 0 0,0
21.09.2018 06:00:00 12,0 11,0 8,0 12,7 18,4 17,0 4 2 7 4 W 1014,9 25 0 0,0
21.09.2018 05:00:00 11,7 10,7 6,9 13,1 18,7 17,0 2 1 6 3 NW 1015,4 19 0 0,0
21.09.2018 04:00:00 10,6 10,1 7,7 13,7 19,1 17,0 5 3 8 4 W 1016,2 19 0 0,0
21.09.2018 03:00:00 11,0 10,2 8,2 14,5 19,4 17,0 6 3 8 4 W 1016,3 22 0 0,0
21.09.2018 02:00:00 11,9 10,8 9,3 15,2 19,8 17,0 4 2 6 3 W 1016,6 24 0 0,0
21.09.2018 01:00:00 12,8 10,8 9,8 15,9 20,2 17,0 5 3 6 3 W 1016,7 28 0 0,0
21.09.2018 00:00:00 15,4 12,1 11,4 16,7 20,5 17,0 4 2 5 3 N 1016,6 31 0 0,0
20.09.2018 23:00:00 15,3 12,2 11,1 17,6 20,9 17,0 5 3 5 3 WSW 1017,1 36 0 0,0
20.09.2018 22:00:00 16,6 12,4 12,3 18,7 21,2 17,0 3 2 4 2 W 1016,9 38 0 0,0
20.09.2018 21:00:00 19,1 12,5 13,7 20,0 21,4 17,0 3 2 6 3 NW 1016,6 43 0 0,0
20.09.2018 20:00:00 22,0 12,4 15,9 21,8 21,5 17,0 5 3 8 4 S 1015,8 47 4 0,0
20.09.2018 19:00:00 24,1 12,5 21,3 24,4 21,4 17,0 7 4 15 8 SSE 1015,2 53 60 0,0
20.09.2018 18:00:00 25,7 12,5 26,4 27,1 21,1 17,0 10 5 22 12 S 1015,3 48 60 0,0
20.09.2018 17:00:00 26,1 12,4 28,3 29,3 20,6 17,0 12 7 24 13 SSE 1015,6 48 60 0,0
20.09.2018 16:00:00 26,2 12,9 29,4 30,6 20,0 17,0 13 7 24 13 S 1016,1 52 60 0,0
20.09.2018 15:00:00 25,9 12,7 30,0 31,0 19,3 17,0 11 6 23 13 SSW 1016,8 47 60 0,0
20.09.2018 14:00:00 25,6 13,5 29,6 30,5 18,6 17,0 15 8 27 14 S 1017,6 34 60 0,0
20.09.2018 13:00:00 24,7 14,1 29,0 29,0 17,9 17,0 12 7 26 14 S 1018,3 32 60 0,0
20.09.2018 12:00:00 23,7 15,1 27,6 26,4 17,4 17,0 11 6 16 9 SW 1018,9 33 60 0,0
20.09.2018 11:00:00 21,8 15,1 24,8 23,0 17,1 17,0 9 5 15 8 SSW 1019,9 34 60 0,0
20.09.2018 10:00:00 19,0 13,7 21,3 19,2 17,1 17,0 10 5 16 8 SSW 1020,5 36 60 0,0
20.09.2018 09:00:00 16,0 13,0 17,0 15,5 17,3 17,0 5 3 10 6 WSW 1021,1 27 60 0,0
20.09.2018 08:00:00 11,9 10,7 10,0 13,0 17,6 17,0 3 2 5 3 W 1022,0 16 24 0,0
20.09.2018 07:00:00 11,3 11,1 8,7 12,9 17,9 17,0 4 2 6 3 W 1022,0 15 0 0,0
20.09.2018 06:00:00 11,1 10,8 8,5 13,3 18,2 17,0 3 2 7 4 W 1021,9 16 0 0,0
20.09.2018 05:00:00 11,6 11,1 9,0 13,7 18,5 17,0 3 1 5 3 W 1021,9 18 0 0,0
20.09.2018 04:00:00 11,9 11,2 9,5 14,2 18,8 17,0 3 1 5 3 WSW 1021,9 23 0 0,0
20.09.2018 03:00:00 12,5 11,5 9,5 14,7 19,1 17,0 3 2 5 3 SW 1021,8 32 0 0,0
20.09.2018 02:00:00 13,5 11,8 10,0 15,2 19,5 17,0 3 1 5 3 S 1021,8 36 0 0,0
20.09.2018 01:00:00 13,2 11,7 11,0 15,9 19,8 17,0 4 2 5 3 W 1021,9 34 0 0,0
20.09.2018 00:00:00 13,5 11,9 10,9 16,6 20,2 17,0 4 2 6 3 W 1022,0 36 0 0,0
19.09.2018 23:00:00 15,0 12,5 11,7 17,4 20,5 17,0 3 2 5 3 W 1021,6 40 0 0,0
19.09.2018 22:00:00 15,7 12,7 12,5 18,5 20,8 17,0 4 2 6 3 W 1021,3 46 0 0,0
19.09.2018 21:00:00 17,9 12,7 13,8 19,7 21,0 17,0 3 2 5 3 WNW 1020,7 56 0 0,0
19.09.2018 20:00:00 20,8 12,0 15,7 21,5 21,1 17,0 3 2 6 4 SW 1019,6 64 13 0,0
19.09.2018 19:00:00 23,7 12,6 21,3 24,0 21,0 17,0 6 3 13 7 S 1018,6 66 60 0,0
19.09.2018 18:00:00 24,9 12,1 25,3 26,6 20,6 17,0 9 5 14 8 S 1018,2 50 60 0,0
19.09.2018 17:00:00 25,1 12,6 27,3 28,7 20,1 17,0 8 5 19 10 SSE 1018,3 70 60 0,0
19.09.2018 16:00:00 25,1 13,9 28,4 30,0 19,5 17,0 11 6 26 14 S 1018,6 61 60 0,0
19.09.2018 15:00:00 24,3 13,1 28,7 30,3 18,8 17,0 12 7 19 11 S 1019,2 55 60 0,0
19.09.2018 14:00:00 24,4 13,7 28,9 29,4 18,1 17,0 9 5 20 11 SSE 1019,5 56 60 0,0
19.09.2018 13:00:00 22,8 11,7 27,5 27,8 17,5 17,0 8 4 15 8 SE 1020,2 52 60 0,0
19.09.2018 12:00:00 21,2 12,8 25,8 25,0 17,0 17,0 8 4 16 9 ESE 1020,9 38 60 0,0
19.09.2018 11:00:00 19,5 13,3 22,7 21,9 16,8 17,0 5 3 13 7 ESE 1021,4 41 60 0,0
19.09.2018 10:00:00 17,4 13,1 19,3 18,3 16,8 17,0 6 3 10 5 SSE 1021,3 27 60 0,0
19.09.2018 09:00:00 15,0 11,2 14,9 15,0 17,0 17,0 3 2 9 5 E 1021,5 46 60 0,0
19.09.2018 08:00:00 11,2 10,1 10,5 12,5 17,3 17,0 3 2 5 3 WNW 1022,0 33 23 0,0
19.09.2018 07:00:00 10,5 10,0 8,4 12,5 17,6 17,0 5 3 6 4 W 1021,6 23 0 0,0
19.09.2018 06:00:00 11,7 10,7 9,0 12,7 17,9 17,0 0 0 7 4 N 1021,2 36 0 0,0
19.09.2018 05:00:00 11,0 10,6 8,2 13,1 18,2 17,0 3 2 10 5 SW 1021,2 19 0 0,0
19.09.2018 04:00:00 11,1 10,8 9,4 13,7 18,6 17,0 5 3 8 4 SW 1021,0 23 0 0,0
19.09.2018 03:00:00 13,2 11,4 11,2 14,3 19,0 17,0 9 5 16 9 ESE 1020,5 39 0 0,0
19.09.2018 02:00:00 12,4 12,1 10,8 14,9 19,3 17,0 3 2 12 7 WNW 1020,3 15 0 0,0
19.09.2018 01:00:00 13,2 12,6 10,9 15,8 19,6 17,0 6 4 11 6 W 1019,9 21 0 0,0
19.09.2018 00:00:00 14,8 13,2 12,1 16,8 20,0 17,0 6 3 16 9 W 1019,3 36 0 0,0
18.09.2018 23:00:00 15,1 14,0 13,9 18,1 20,2 17,0 6 3 16 9 W 1019,3 30 0 0,0
18.09.2018 22:00:00 16,0 13,9 15,2 19,2 20,4 17,0 7 4 37 20 W 1018,4 39 0 0,5
18.09.2018 21:00:00 19,9 10,9 19,4 20,7 20,5 17,0 25 13 39 21 NW 1017,7 48 0 0,0
18.09.2018 20:00:00 21,0 15,2 18,7 22,1 20,5 17,0 11 6 17 9 S 1016,1 27 0 0,0
18.09.2018 19:00:00 24,0 14,0 23,7 24,3 20,4 17,0 14 8 22 12 SSW 1014,9 42 48 0,0
18.09.2018 18:00:00 24,2 14,1 24,0 25,4 20,1 17,0 17 9 24 13 SSW 1014,7 45 9 0,0
18.09.2018 17:00:00 25,6 13,4 27,3 27,5 19,7 17,0 16 9 28 15 SW 1014,4 48 43 0,0
18.09.2018 16:00:00 25,5 12,4 26,8 27,2 19,1 17,0 12 6 24 13 S 1014,7 47 30 0,0
18.09.2018 15:00:00 25,6 13,4 28,0 29,8 18,4 17,0 16 8 35 19 SSW 1015,1 40 60 0,0
18.09.2018 14:00:00 25,3 12,8 29,8 29,6 17,6 17,0 17 9 29 15 SSW 1015,6 27 60 0,0
18.09.2018 13:00:00 24,6 13,6 28,6 27,9 16,9 17,0 16 9 24 13 S 1016,0 39 60 0,0
18.09.2018 12:00:00 22,1 13,7 26,3 25,0 16,4 17,0 14 8 21 12 SSW 1016,9 29 60 0,0
18.09.2018 11:00:00 20,3 13,3 23,4 21,7 16,2 17,0 15 8 20 11 SSW 1017,3 25 60 0,0
18.09.2018 10:00:00 17,3 12,2 19,7 18,1 16,1 17,0 11 6 16 8 SSW 1018,2 18 60 0,0
18.09.2018 09:00:00 14,6 12,0 15,6 14,0 16,3 17,0 5 3 8 4 S 1018,7 20 60 0,0
18.09.2018 08:00:00 9,8 8,7 8,7 11,3 16,6 17,0 3 1 6 4 W 1019,7 16 33 0,0
18.09.2018 07:00:00 9,0 8,9 5,9 11,3 17,0 17,0 4 2 7 4 WSW 1019,5 16 0 0,0
18.09.2018 06:00:00 8,7 7,7 6,3 11,8 17,3 17,0 4 2 6 3 W 1019,4 24 0 0,0
18.09.2018 05:00:00 9,5 8,1 7,3 12,3 17,6 17,0 4 2 5 3 W 1019,3 30 0 0,0
18.09.2018 04:00:00 9,9 8,2 8,2 12,9 17,9 17,0 5 3 7 4 W 1019,3 35 0 0,0
18.09.2018 03:00:00 9,6 7,6 8,4 13,3 18,3 17,0 5 3 7 4 W 1019,4 36 0 0,0
18.09.2018 02:00:00 10,7 8,1 8,6 13,9 18,7 17,0 5 3 6 4 W 1019,2 42 0 0,0
18.09.2018 01:00:00 11,0 8,1 9,1 14,5 19,0 17,0 5 3 6 4 WNW 1019,4 41 0 0,0
18.09.2018 00:00:00 11,6 8,8 9,4 15,2 19,4 17,0 4 2 7 4 W 1019,5 43 0 0,0
17.09.2018 23:00:00 12,9 8,3 10,5 15,9 19,8 17,0 4 2 6 3 WNW 1019,4 51 0 0,0
17.09.2018 22:00:00 14,6 8,6 10,1 17,0 20,1 17,0 4 2 5 3 WNW 1019,1 50 0 0,0
17.09.2018 21:00:00 16,4 8,8 11,3 18,5 20,4 17,0 3 2 4 2 W 1018,8 53 0 0,0
17.09.2018 20:00:00 20,1 7,5 13,7 20,5 20,5 17,0 2 1 9 5 S 1017,5 40 21 0,0
17.09.2018 19:00:00 23,2 8,6 21,7 23,2 20,4 17,0 6 3 11 6 S 1016,8 61 60 0,0
17.09.2018 18:00:00 24,6 8,8 25,8 25,8 20,0 17,1 5 3 14 8 SSE 1016,5 59 59 0,0
17.09.2018 17:00:00 24,2 8,5 25,2 28,2 19,5 17,1 7 4 17 9 ESE 1017,1 65 59 0,0
17.09.2018 16:00:00 25,1 9,7 28,6 29,8 18,8 17,1 10 5 21 12 SE 1017,2 41 60 0,0
17.09.2018 15:00:00 24,0 8,2 28,2 30,1 18,0 17,1 12 7 28 15 SSE 1018,2 43 60 0,0
17.09.2018 14:00:00 23,5 8,5 28,0 29,5 17,2 17,1 8 4 19 11 S 1018,8 53 60 0,0
17.09.2018 13:00:00 22,4 9,9 26,4 27,6 16,5 17,1 11 6 22 12 S 1019,6 37 60 0,0
17.09.2018 12:00:00 21,6 9,2 25,4 25,3 16,0 17,1 11 6 19 10 S 1020,2 39 60 0,0
17.09.2018 11:00:00 19,9 14,7 22,9 21,9 15,7 17,1 8 4 12 7 S 1020,8 23 59 0,0
17.09.2018 10:00:00 16,9 13,3 19,2 17,9 15,6 17,1 8 4 9 5 S 1021,7 16 60 0,0
17.09.2018 09:00:00 13,9 11,6 13,3 13,6 15,8 17,1 0 0 4 2 N 1022,3 19 60 0,0
17.09.2018 08:00:00 10,0 9,5 9,4 10,7 16,1 17,1 3 2 5 3 WSW 1023,2 8 36 0,0
17.09.2018 07:00:00 9,9 9,8 7,7 10,7 16,4 17,1 3 2 5 3 WNW 1023,2 7 0 0,0
17.09.2018 06:00:00 9,9 9,9 6,7 11,1 16,7 17,1 4 2 8 4 W 1022,8 3,6 0 0,0
17.09.2018 05:00:00 10,0 10,0 6,5 11,5 17,1 17,1 4 2 7 4 W 1022,5 4,7 0 0,0
17.09.2018 04:00:00 10,2 10,2 6,5 12,0 17,4 17,1 3 2 4 2 W 1022,4 4,8 0 0,0

tt = Température de l'air
td = dewpoint
tt 5cm = Température de l'air 5cm
tt -5cm = Température de l'air -5cm
tt -20cm = Température de l'air -20cm
tt -100cm = Température de l'air -100cm
ff = Vitesse du vent
fx = gusts
dd = Direction du vent
ppp = reduced air pressure
vv = visibility
sd = Ensoleillement
rr = Quantités de précipitations

stations d'obs. à proximité